Weather History for KSRR - April, 2014

Change the Weather History Date:

Tuesday, April 15, 2014

  Actual Average Record
Temperature  
Mean Temperature 42 °F -  
Max Temperature 60 °F 62 °F 73 °F (2002)
Min Temperature 24 °F 38 °F 24 °F (2014)
Degree Days  
Heating Degree Days 23    
Moisture  
Dew Point 11 °F    
Average Humidity 32    
Maximum Humidity 69    
Minimum Humidity 12    
Precipitation  
Precipitation 0.00 in - - ()
Sea Level Pressure  
Sea Level Pressure 30.15 in    
Wind  
Wind Speed 8 mph (West)    
Max Wind Speed 23 mph    
Max Gust Speed 30 mph    
Visibility 10 miles    
Events      
Averages and records for this station are not official NWS values.
T = Trace of Precipitation, MM = Missing Value Source: NWS Daily Summary

Daily Weather History Graph

Daily Weather History Graph

Search for Another Location

Airport or City:

Trip Planner

Search our weather history database for the weather conditions in past years. The results will help you decide how hot, cold, wet, or windy it might be!

Date:

Astronomy

Apr. 15, 2014 Rise Set
Actual Time 6:31 AM MDT 7:33 PM MDT
Civil Twilight 6:06 AM MDT 7:58 PM MDT
Nautical Twilight 5:35 AM MDT 8:28 PM MDT
Astronomical Twilight 5:04 AM MDT 9:00 PM MDT
Moon 8:14 PM MDT (4/15) 6:42 AM MDT (4/15)
Length of Visible Light 13h 52m
Length of Day
13h 01m
Full, 100% of the Moon is Illuminated
Apr 15
Full
Apr 22
Last Quarter
Apr 29
New
May 6
First Quarter
May 14
Full

Hourly Weather History & Observations

Time (MDT) Temp. Windchill Dew Point Humidity Pressure Visibility Wind Dir Wind Speed Gust Speed Precip Events Conditions
12:15 AM 28.4 °F 24.6 °F 15.8 °F 59% 30.28 in 10.0 mi North 3.5 mph - N/A   Clear
12:35 AM 26.6 °F - 15.8 °F 64% 30.28 in 10.0 mi Calm Calm - N/A   Clear
12:55 AM 28.4 °F 22.2 °F 15.8 °F 59% 30.27 in 10.0 mi SW 5.8 mph - N/A   Clear
1:15 AM 26.6 °F 20.0 °F 15.8 °F 64% 30.27 in 10.0 mi SW 5.8 mph - N/A   Clear
1:35 AM 24.8 °F 16.1 °F 15.8 °F 69% 30.27 in 10.0 mi SW 8.1 mph - N/A   Clear
1:55 AM 26.6 °F 18.2 °F 17.6 °F 69% 30.27 in 10.0 mi SW 8.1 mph - N/A   Clear
2:15 AM 30.2 °F 22.6 °F 15.8 °F 55% 30.26 in 10.0 mi West 8.1 mph - N/A   Clear
2:35 AM 30.2 °F 21.9 °F 15.8 °F 55% 30.26 in 10.0 mi West 9.2 mph - N/A   Clear
2:55 AM 28.4 °F 21.2 °F 15.8 °F 59% 30.26 in 10.0 mi WNW 6.9 mph - N/A   Clear
3:15 AM 28.4 °F 21.2 °F 15.8 °F 59% 30.25 in 10.0 mi WNW 6.9 mph - N/A   Clear
3:35 AM 30.2 °F 26.7 °F 15.8 °F 55% 30.25 in 10.0 mi NW 3.5 mph - N/A   Clear
4:15 AM 28.4 °F 21.2 °F 15.8 °F 59% 30.25 in 10.0 mi WNW 6.9 mph - N/A   Clear
4:35 AM 28.4 °F 23.3 °F 15.8 °F 59% 30.24 in 10.0 mi NW 4.6 mph - N/A   Clear
4:55 AM 28.4 °F 23.3 °F 15.8 °F 59% 30.24 in 10.0 mi NW 4.6 mph - N/A   Clear
5:15 AM 26.6 °F 21.2 °F 15.8 °F 64% 30.24 in 10.0 mi NNE 4.6 mph - N/A   Clear
5:35 AM 26.6 °F 20.0 °F 15.8 °F 64% 30.23 in 10.0 mi WNW 5.8 mph - N/A   Clear
5:55 AM 28.4 °F 23.3 °F 15.8 °F 59% 30.23 in 10.0 mi NW 4.6 mph - N/A   Clear
6:15 AM 28.4 °F 23.3 °F 15.8 °F 59% 30.24 in 10.0 mi NW 4.6 mph - N/A   Clear
6:35 AM 28.4 °F 24.6 °F 15.8 °F 59% 30.23 in 10.0 mi NNW 3.5 mph - N/A   Clear
6:55 AM 30.2 °F 25.4 °F 15.8 °F 55% 30.24 in 10.0 mi NW 4.6 mph - N/A   Clear
7:15 AM 32.0 °F - 15.8 °F 51% 30.24 in 10.0 mi Calm Calm - N/A   Clear
7:55 AM 35.6 °F 32.8 °F 15.8 °F 44% 30.24 in 10.0 mi WNW 3.5 mph - N/A   Clear
8:15 AM 35.6 °F 32.8 °F 17.6 °F 48% 30.24 in 10.0 mi NW 3.5 mph - N/A   Clear
8:35 AM 37.4 °F 33.8 °F 19.4 °F 48% 30.24 in 10.0 mi NE 4.6 mph - N/A   Clear
8:55 AM 39.2 °F 35.9 °F 17.6 °F 42% 30.23 in 10.0 mi NNE 4.6 mph - N/A   Clear
9:15 AM 41.0 °F 38.0 °F 17.6 °F 39% 30.22 in 10.0 mi NE 4.6 mph - N/A   Clear
9:35 AM 42.8 °F 41.1 °F 17.6 °F 36% 30.22 in 10.0 mi NE 3.5 mph - N/A   Clear
9:55 AM 46.4 °F - 15.8 °F 29% 30.22 in 10.0 mi Calm Calm - N/A   Clear
10:15 AM 48.2 °F - 14.0 °F 25% 30.22 in 10.0 mi NE 4.6 mph - N/A   Clear
10:55 AM 51.8 °F - 15.8 °F 24% 30.22 in 10.0 mi NNW 11.5 mph 17.3 mph N/A   Clear
11:35 AM 51.8 °F - 15.8 °F 24% 30.21 in 10.0 mi North 8.1 mph - N/A   Clear
11:55 AM 53.6 °F - 15.8 °F 22% 30.21 in 10.0 mi North 8.1 mph - N/A   Clear
12:15 PM 53.6 °F - 15.8 °F 22% 30.20 in 10.0 mi North 6.9 mph 16.1 mph N/A   Clear
12:35 PM 53.6 °F - 15.8 °F 22% 30.19 in 10.0 mi NNW 5.8 mph - N/A   Clear
12:55 PM 55.4 °F - 15.8 °F 21% 30.18 in 10.0 mi NE 5.8 mph - N/A   Clear
1:15 PM 57.2 °F - 14.0 °F 18% 30.16 in 10.0 mi North 11.5 mph - N/A   Clear
1:35 PM 57.2 °F - 14.0 °F 18% 30.15 in 10.0 mi NNE 6.9 mph 17.3 mph N/A   Clear
1:55 PM 59.0 °F - 10.4 °F 15% 30.14 in 10.0 mi NNE 12.7 mph 19.6 mph N/A   Clear
2:15 PM 57.2 °F - 10.4 °F 16% 30.13 in 10.0 mi NE 11.5 mph 17.3 mph N/A   Clear
2:35 PM 57.2 °F - 10.4 °F 16% 30.12 in 10.0 mi Calm Calm - N/A   Clear
2:55 PM 60.8 °F - 12.2 °F 15% 30.11 in 10.0 mi South 11.5 mph 17.3 mph N/A   Clear
3:15 PM 59.0 °F - 10.4 °F 15% 30.10 in 10.0 mi SSE 12.7 mph 20.7 mph N/A   Clear
3:35 PM 59.0 °F - 8.6 °F 14% 30.09 in 10.0 mi South 13.8 mph 25.3 mph N/A   Clear
3:55 PM 59.0 °F - 8.6 °F 14% 30.08 in 10.0 mi SSW 12.7 mph 18.4 mph N/A   Clear
4:15 PM 59.0 °F - 6.8 °F 13% 30.07 in 10.0 mi SSW 11.5 mph 20.7 mph N/A   Clear
4:35 PM 59.0 °F - 6.8 °F 13% 30.06 in 10.0 mi SW 10.4 mph 18.4 mph N/A   Clear
4:55 PM 59.0 °F - 6.8 °F 13% 30.05 in 10.0 mi SW 11.5 mph 18.4 mph N/A   Clear
5:15 PM 59.0 °F - 6.8 °F 13% 30.05 in 10.0 mi SSW 16.1 mph 19.6 mph N/A   Clear
5:35 PM 57.2 °F - 5.0 °F 12% 30.04 in 10.0 mi SW 13.8 mph - N/A   Clear
5:55 PM 55.4 °F - 5.0 °F 13% 30.03 in 10.0 mi SSW 19.6 mph - N/A   Clear
6:15 PM 55.4 °F - 5.0 °F 13% 30.03 in 10.0 mi South 12.7 mph - N/A   Clear
6:35 PM 53.6 °F - 3.2 °F 13% 30.02 in 10.0 mi SW 23.0 mph 29.9 mph N/A   Clear
6:55 PM 53.6 °F - 5.0 °F 14% 30.02 in 10.0 mi SW 20.7 mph 28.8 mph N/A   Clear
7:15 PM 51.8 °F - 5.0 °F 15% 30.01 in 10.0 mi SW 17.3 mph 25.3 mph N/A   Clear
7:35 PM 50.0 °F - 3.2 °F 15% 30.01 in 10.0 mi SW 16.1 mph - N/A   Clear
7:55 PM 50.0 °F - 3.2 °F 15% 30.01 in 10.0 mi SW 18.4 mph 23.0 mph N/A   Clear
8:15 PM 50.0 °F - 1.4 °F 14% 30.02 in 10.0 mi SW 16.1 mph 23.0 mph N/A   Clear
8:35 PM 50.0 °F - 3.2 °F 15% 30.02 in 10.0 mi SW 18.4 mph - N/A   Clear
8:55 PM 50.0 °F - 3.2 °F 15% 30.03 in 10.0 mi SW 16.1 mph 27.6 mph N/A   Clear
9:15 PM 50.0 °F - 3.2 °F 15% 30.02 in 10.0 mi SW 19.6 mph 29.9 mph N/A   Clear
9:35 PM 50.0 °F - 3.2 °F 15% 30.03 in 10.0 mi SW 23.0 mph 27.6 mph N/A   Clear
9:55 PM 50.0 °F - 3.2 °F 15% 30.02 in 10.0 mi SW 21.9 mph 28.8 mph N/A   Clear
10:15 PM 50.0 °F - 5.0 °F 16% 30.03 in 10.0 mi SW 21.9 mph 29.9 mph N/A   Clear
10:35 PM 50.0 °F - 5.0 °F 16% 30.03 in 10.0 mi SW 18.4 mph 28.8 mph N/A   Clear
10:55 PM 50.0 °F - 5.0 °F 16% 30.03 in 10.0 mi SW 18.4 mph 23.0 mph N/A   Clear
11:15 PM 48.2 °F - 5.0 °F 17% 30.03 in 10.0 mi SW 12.7 mph - N/A   Clear
11:35 PM 48.2 °F - 5.0 °F 17% 30.03 in 10.0 mi WSW 12.7 mph - N/A   Clear
11:55 PM 48.2 °F - 5.0 °F 17% 30.03 in 10.0 mi SW 13.8 mph 20.7 mph N/A   Clear